CZ-6A DEB

Satellite information

Favourite Embed

Satellite Type and Status

DEBRISIN ORBIT

Key statistics

Satellite CZ-6A DEB at a glance.

Uptime

913

Days in orbit

Revolutions

≈ 14.1

Per day

Orbit

SSO

Sun Synchronous Orbit

Inclination

98.8

Latest

Satellite identification and parameters

Extended collection of information and parameters for CZ-6A DEB.

Object identification

Identified? True

Debris? True

Object name: CZ-6A DEB

International designator: 2022-151QM

Object number (NORAD): 54900

Object ID (CCSDS): 54900

Country: PEOPLES REPUBLIC OF CHINA (PRC)

Current information (Y/N): Y

RCS size: SMALL

Orbital parameters

Period: 102.25 minutes

Inclination: 98.834 deg

SMA: 7243.282 km

Apoapsis: 934.434 km

Periapsis: 795.859 km

RAAN: 131.0271 deg

Eccentricy: 0.0095658

Argument of periapsis: 84.6666 deg

Mean anomaly: 276.5409 deg

Mean motion: 14.08314705 rev/day

Mean motion (dot): 0.00000756 rev/day2

B* drag term: 0.00044784 1/REarth

Two-line elements (TLE)

Creation date: May 12, 2025, 2:31 a.m.

Reference frame: TEME

Reference center: EARTH

Epoch: May 11, 2025, 10:35 p.m. UTC

TLE line 0: 0 CZ-6A DEB

TLE line 1: 1 54900U 22151QM 25131.94145117 .00000756 00000-0 44784-3 0 9991

TLE line 2: 2 54900 98.8340 131.0271 0095658 84.6666 276.5409 14.08314705125459

Live tracking on map

Real-time ground track for satellite CZ-6A DEB.

In-orbit conjunctions

A list of the most updated potential collisions computed for object CZ-6A DEB.

Target Orbit TCA Probability of collision Miss distance Type
METEOR 2-11 DEB LEO 2024-11-14 21:19:44 0.0001188664 681.0 (m) DEBRIS

Associated space launch

Chinese satellite reported for atmospheric/ocean/environmental/spatial parameter research purposes, details TBD.

CZ-6A DEB was lifted into orbit during the mission ‘Long March 6A | Yunhai 3’, on board a Long March 6A space rocket.

The launch took place on Nov. 11, 2022, 10:52 p.m. from Launch Complex 9A.

For more information about the launch, click the button.

Launch to space Long March 6A | Yunhai 3
Long March 6A | Yunhai 3

Agency: N/A

Status: Launch Successful

Launch date: Nov. 11, 2022, 10:52 p.m. UTC

Rocket: Long March 6A

Launch pad: Launch Complex 9A

Location: Taiyuan Satellite Launch Center, People's Republic of China

...

Latest news about this satellite

There are no fresh news available about this satellite. Check back as we update our databases every day.


Newsletter sign-up

Weekly statistics, charts and insights to help you stay on top of the space industry.